This is the latest recevied weather packets stored in our database for station/object WB4ROX. If no packets are shown the sender has not sent any weather packets the latest 10 day(s).
| Time | Temp. | Humidity | Pressure | Rain* | Wind** | Luminosity | Snow |
|---|---|---|---|---|---|---|---|
| 1777864404 | 6.67° C | 38% | 1018.4 hPa | 0 mm | - | 0 W/m² | - |
| 1777864100 | 6.67° C | 40% | 1018.3 hPa | 0 mm | - | 0 W/m² | - |
| 1777863798 | 6.11° C | 43% | 1018.2 hPa | 0 mm | - | 0 W/m² | - |
| 1777863494 | 6.67° C | 48% | 1018.4 hPa | 0 mm | - | 0 W/m² | - |
| 1777863191 | 6.11° C | 45% | 1018.6 hPa | 0 mm | - | 0 W/m² | - |
| 1777862888 | 6.11° C | 47% | 1018.5 hPa | 0 mm | - | 0 W/m² | - |
| 1777862584 | 6.11° C | 50% | 1018.4 hPa | 0 mm | - | 0 W/m² | - |
| 1777862281 | 6.11° C | 49% | 1018.6 hPa | 0 mm | - | 0 W/m² | - |
| 1777861977 | 6.11° C | 48% | 1018.9 hPa | 0 mm | - | 0 W/m² | - |
| 1777861673 | 6.11° C | 47% | 1019 hPa | 0 mm | - | 0 W/m² | - |
| 1777861370 | 6.11° C | 46% | 1018.9 hPa | 0 mm | - | 0 W/m² | - |
| 1777861067 | 6.67° C | 44% | 1018.8 hPa | 0 mm | - | 0 W/m² | - |
| 1777860764 | 6.67° C | 45% | 1018.6 hPa | 0 mm | - | 0 W/m² | - |
| 1777860461 | 6.67° C | 44% | 1018.9 hPa | 0 mm | - | 0 W/m² | - |
| 1777860157 | 6.67° C | 43% | 1018.9 hPa | 0 mm | - | 0 W/m² | - |
| 1777859854 | 6.67° C | 41% | 1018.6 hPa | 0 mm | - | 0 W/m² | - |
| 1777859550 | 6.11° C | 43% | 1018.5 hPa | 0 mm | - | 0 W/m² | - |
| 1777859246 | 6.11° C | 45% | 1018.9 hPa | 0 mm | - | 0 W/m² | - |
| 1777858943 | 5.56° C | 47% | 1018.5 hPa | 0 mm | - | 0 W/m² | - |
| 1777858641 | 5.56° C | 49% | 1018.5 hPa | 0 mm | - | 0 W/m² | - |
| 1777858338 | 6.11° C | 48% | 1018.3 hPa | 0 mm | - | 0 W/m² | - |
| 1777858034 | 6.11° C | 46% | 1018.8 hPa | 0 mm | - | 0 W/m² | - |
| 1777857733 | 6.11° C | 44% | 1018.5 hPa | 0 mm | - | 0 W/m² | - |
| 1777857429 | 6.11° C | 43% | 1018.5 hPa | 0 mm | - | 0 W/m² | - |
| 1777857126 | 6.11° C | 44% | 1018.4 hPa | 0 mm | - | 0 W/m² | - |
* Rain latest hour (hover to see other rain measurements)
** Current wind speed in m/s (hover to see current wind gust speed)